This demonstration page uses our WeatherBlox Daily Observations layout. Learn more.

Left ArrowRight Arrow

34.16533, -84.80231

Hourly Observations for February 24, 2015

Temp ( °F °C ) Dew Point ( °F °C ) Humidity (%) Winds ( mph kmh ) Pressure ( in mb ) Visibility ( mi km ) Precip ( " mm )
12:53 am 00:53 Cloudy 32 0 21 -6.1 64 64 NNW 6 9 30.21 1023 10 16 0.00 0.00
1:53 am 01:53 Cloudy 32 0 21 -6.1 64 64 N 8 13 30.21 1023 10 16 0.00 0.00
2:53 am 02:53 Cloudy with Light Wintry Mix 31 -0.6 22 -5.6 69 69 Calm 30.19 1023 7 11 0.01 0.25
3:53 am 03:53 Cloudy 30 -1.1 22 -5.6 72 72 NNW 3 6 30.17 1022 10 16 0.02 0.51
4:53 am 04:53 Cloudy with Light Snow 29 -1.7 22 -5.6 75 75 N 5 7 30.17 1022 5 8 0.00 0.03
5:27 am 05:27 Cloudy with Light Freezing Rain 29 -1.7 24 -4.4 82 82 VRB 3 6 30.21 1023 5 8 0.02 0.51
5:36 am 05:36 Cloudy with Light Freezing Rain 29 -1.7 24 -4.4 82 82 NNW 3 6 30.21 1023 4 6 0.02 0.51
5:53 am 05:53 Cloudy with Light Snow 28 -2.2 25 -3.9 88 88 VRB 6 9 30.21 1023 3 5 0.03 0.76
5:57 am 05:57 Cloudy with Light Wintry Mix 28 -2.2 25 -3.9 88 88 Calm 30.21 1023 3 4 0.01 0.25
6:04 am 06:04 Cloudy with Light Snow 28 -2.2 25 -3.9 88 88 VRB 6 9 30.24 1024 3 4 0.01 0.25
6:21 am 06:21 Cloudy with Light Snow 28 -2.2 25 -3.9 88 88 N 5 7 30.21 1023 3 4 0.02 0.51
6:25 am 06:25 Cloudy with Light Snow 28 -2.2 25 -3.9 88 88 NNW 6 9 30.24 1024 3 5 0.03 0.76
6:53 am 06:53 Cloudy with Light Snow 28 -2.2 25 -3.9 88 88 VRB 3 6 30.18 1022 3 5 0.03 0.76
7:00 am 07:00 Cloudy with Light Wintry Mix 28 -2.2 25 -3.9 88 88 N 3 6 30.21 1023 3 4 0.00 0.03
7:31 am 07:31 Cloudy with Light Snow 28 -2.2 25 -3.9 88 88 Calm 30.21 1023 3 5 0.03 0.76
7:34 am 07:34 Cloudy with Light Snow 28 -2.2 25 -3.9 88 88 Calm 30.21 1023 3 4 0.03 0.76
7:44 am 07:44 Cloudy with Light Snow 28 -2.2 26 -3.3 92 92 Calm 30.21 1023 3 5 0.03 0.76
7:53 am 07:53 Cloudy with Light Snow 28 -2.2 26 -3.3 92 92 Calm 30.17 1022 3 4 0.03 0.76
7:58 am 07:58 Cloudy with Mist and Fog 28 -2.2 26 -3.3 92 92 Calm 30.21 1023 3 5 0.00 0.03
8:05 am 08:05 Cloudy with Mist and Fog 28 -2.2 25 -3.9 88 88 N 3 6 30.18 1022 4 6 0.00 0.03
8:30 am 08:30 Cloudy with Mist and Fog 28 -2.2 25 -3.9 88 88 Calm 30.21 1023 4 6 0.00 0.03
8:45 am 08:45 Cloudy with Mist and Fog 28 -2.2 25 -3.9 88 88 N 3 6 30.21 1023 3 4 0.00 0.03
8:53 am 08:53 Cloudy with Mist and Fog 28 -2.2 25 -3.9 88 88 Calm 30.17 1022 3 4 0.01 0.25
9:10 am 09:10 Cloudy with Mist and Fog 28 -2.2 25 -3.9 88 88 Calm 30.18 1022 4 6 0.00 0.00
9:28 am 09:28 Cloudy with Mist and Fog 28 -2.2 26 -3.3 92 92 Calm 30.21 1023 3 4 0.00 0.00
9:53 am 09:53 Cloudy with Light Freezing Rain 29 -1.7 27 -2.8 92 92 Calm 30.16 1021 1 2 0.00 0.03
10:02 am 10:02 Cloudy with Mist and Fog 29 -1.7 27 -2.8 92 92 Calm 30.18 1022 1 2 0.00 0.03
10:28 am 10:28 Cloudy with Mist and Fog 29 -1.7 27 -2.8 92 92 N 3 6 30.18 1022 2 3 0.00 0.03
10:39 am 10:39 Cloudy with Mist and Fog 29 -1.7 27 -2.8 92 92 Calm 30.18 1022 2 3 0.01 0.25
10:48 am 10:48 Cloudy with Mist and Fog 30 -1 27 -3 86 86 Calm 30.18 1022 2 2 0.01 0.25
10:53 am 10:53 Cloudy with Mist and Fog 30 -1.1 27 -2.8 88 88 Calm 30.15 1021 2 3 0.01 0.25
11:06 am 11:06 Cloudy with Mist and Fog 30 -1.1 27 -2.8 88 88 Calm 30.18 1022 2 3 0.00 0.00
11:37 am 11:37 Cloudy with Mist and Fog 30 -1.1 28 -2.2 92 92 Calm 30.18 1022 3 5 0.00 0.00
11:53 am 11:53 Cloudy with Mist and Fog 30 -1.1 28 -2.2 92 92 VRB 3 6 30.14 1021 3 5 0.00 0.00
12:33 pm 12:33 Cloudy with Mist and Fog 31 -0.6 28 -2.2 89 89 Calm 30.15 1021 5 8 0.00 0.00
12:53 pm 12:53 Cloudy 32 0 29 -1.7 88 88 Calm 30.11 1020 7 11 0.00 0.00
1:53 pm 13:53 Cloudy with Mist and Fog 33 0.6 30 -1.1 89 89 Calm 30.07 1018 6 10 0.00 0.00
2:53 pm 14:53 Cloudy 34 1.1 30 -1.1 85 85 Calm 30.05 1018 9 14 0.00 0.00
3:53 pm 15:53 Cloudy 35 1.7 31 -0.6 85 85 Calm 30.02 1017 9 14 0.00 0.00
4:40 pm 16:40 Cloudy 36 2.2 32 0 86 86 Calm 30.06 1018 9 14 0.00 0.00
4:53 pm 16:53 Cloudy 36 2.2 31 -0.6 82 82 Calm 30.01 1016 10 16 0.00 0.00
5:22 pm 17:22 Cloudy 37 2.8 32 0 82 82 E 3 6 30.03 1017 10 16 0.00 0.00
5:33 pm 17:33 Cloudy 37 2.8 32 0 82 82 Calm 30.03 1017 10 16 0.00 0.00
5:53 pm 17:53 Cloudy 36 2.2 32 0 86 86 E 3 6 30.00 1016 10 16 0.00 0.00
6:53 pm 18:53 Cloudy 35 1.7 32 0 89 89 Calm 30.00 1016 10 16 0.00 0.00
7:53 pm 19:53 Clear 33 0.6 29 -1.7 85 85 Calm 29.99 1016 7 11 0.00 0.00
8:53 pm 20:53 Clear with Mist and Fog 30 -1.1 28 -2.2 92 92 Calm 29.99 1016 5 8 0.00 0.00
9:53 pm 21:53 Clear with Mist and Fog 29 -1.7 27 -2.8 92 92 Calm 30.01 1016 5 8 0.00 0.00
10:31 pm 22:31 Partly Cloudy with Mist and Fog 28 -2.2 26 -3.3 92 92 Calm 30.06 1018 4 6 0.00 0.00
10:40 pm 22:40 Mostly Cloudy with Mist and Fog 29 -1.7 27 -2.8 92 92 Calm 30.06 1018 5 8 0.00 0.00
10:53 pm 22:53 Mostly Cloudy with Mist and Fog 28 -2.2 26 -3.3 92 92 Calm 30.00 1016 4 6 0.00 0.00
11:17 pm 23:17 Mostly Clear with Mist and Fog 29 -1.7 27 -2.8 92 92 Calm 30.06 1018 4 6 0.00 0.00
11:53 pm 23:53 Mostly Cloudy with Mist and Fog 28 -2.2 26 -3.3 92 92 Calm 30.00 1016 5 8 0.00 0.00

Powered by AerisWeather